Regional Weather Roundup
Issued by NWS

Home | Current Version | Previous Version | Graphics & Text | Print | Product List | Glossary On
Versions: 1 2 3 4 5 6 7 8 9 10 11 12 13 14 15 16 17 18 19 20 21 22 23 24 25 26 27 28 29 30 31 32 33 34 35 36 37 38 39 40 41 42 43 44 45 46 47 48 49 50
000
ASUS43 KDMX 062307
RWRIA

WEATHER ROUNDUP FOR IOWA
NATIONAL WEATHER SERVICE DES MOINES IA
600 PM CDT MON JUL 06 2015

NOTE: "FAIR" INDICATES FEW OR NO CLOUDS BELOW 12,000 FEET WITH NO
SIGNIFICANT WEATHER AND/OR OBSTRUCTIONS TO VISIBILITY.

* - THESE STATIONS ARE NOT NWS STATIONS...THUS NOT UNDER NWS
QUALITY CONTROL.  THEY ALSO DO NOT REPORT WEATHER SUCH
AS PRECIPITATION OR FOG.

IAZ001>003-012>014-020>022-031>034-043>046-070000-
   NORTHWEST IOWA

CITY           SKY/WX    TMP DP  RH WIND       PRES   REMARKS
CARROLL *      MOSUNNY   72  61  68 N20G29    29.95R HAZE
CHEROKEE *       N/A     72  63  73 N10G22    29.97S HAZE
DENISON *      PTSUNNY   72  59  64 N16G25    29.95R HAZE
LE MARS *      SUNNY     73  61  64 N17       30.00R HAZE
ORANGE CITY *    N/A     70  57  64 N16G23    30.01R HAZE
SHELDON *      SUNNY     72  63  73 N17G29    30.00R HAZE
SIOUX CITY     CLOUDY    75  58  55 N20       29.99R HAZE
SPENCER        CLOUDY    74  59  59 N17       29.98S HAZE
STORM LAKE *   SUNNY     72  61  68 N20G26    29.98R HAZE
$$

IAZ055>058-069>071-079>083-090>094-070000-
   SOUTHWEST IOWA

CITY           SKY/WX    TMP DP  RH WIND       PRES   REMARKS
ATLANTIC *     CLOUDY    68  63  83 NE14G21   29.94R HAZE
AUDUBON *      MOSUNNY   70  64  83 N12G17    29.95S HAZE
CLARINDA *     PTSUNNY   75  73  94 N5        29.90S
COUNCIL BLFS * CLOUDY    73  66  78 MISG      29.94R
CRESTON *      CLOUDY    72  72 100 N5        29.90R
HARLAN  *      CLOUDY    73  70  88 N20G26    29.97R FOG
LAMONI         HVY RAIN  74  72  93 W5        29.89R FOG
RED OAK *      CLOUDY    70  68  94 N16G25    29.92R FOG
SHENANDOAH *   LGT RAIN  72  70  94 N16G24    29.91R
$$

IAZ047>049-059>061-072>074-084-070000-
   CENTRAL IOWA

CITY           SKY/WX    TMP DP  RH WIND       PRES   REMARKS
AMES           CLOUDY    72  67  84 N12       29.91R
ANKENY *       LGT RAIN  72  72 100 N9        29.89R
CHARITON *     LGT RAIN  72  70  94 N6        29.88R
DES MOINES     CLOUDY    73  68  84 N14       29.88R
GRINNELL*      CLOUDY    73  68  83 NW8       29.87R
KNOXVILLE *    CLOUDY    73  70  88 NW9       29.86R
MARSHALLTOWN   CLOUDY    74  70  87 N12       29.86R
PELLA *        CLOUDY    73  72  94 NW6       29.88R
PERRY *        CLOUDY    72  66  83 N10       29.92R
$$

IAZ004>006-015-016-023>025-035-036-070000-
   NORTH CENTRAL IOWA

CITY           SKY/WX    TMP DP  RH WIND       PRES   REMARKS
ALGONA *       MOSUNNY   72  61  68 N14G23    29.94F
CLARION *      SUNNY     70  59  68 N18G30    29.93R HAZE
ESTHERVILLE    CLOUDY    71  59  65 N17       29.97S HAZE
FORT DODGE *   MOSUNNY   72  57  60 N9G22     29.96R
MASON CITY     MOSUNNY   71  59  65 N21G28    29.94S HAZE
FOREST CITY *  SUNNY     68  59  73 N18G25    29.94F HAZE
IOWA FALLS *   CLOUDY    72  61  68 N16G30    29.91R
$$

IAZ007>011-017>019-026>030-037>042-050>054-066-070000-
   NORTHEAST IOWA

CITY           SKY/WX    TMP DP  RH WIND       PRES   REMARKS
CEDAR RAPIDS   PTSUNNY   76  73  91 NW10      29.82F
CHARLES CITY * MOSUNNY   70  63  78 N21G29    29.90S HAZE
CLINTON *      CLOUDY    75  72  88 S13       29.85S
DECORAH *        N/A    N/A N/A N/A MISG        N/A
DUBUQUE        CLOUDY    78  72  81 S5        29.83F HX  80
MONTICELLO *   CLOUDY    79  77  94 W9        29.82F HX  83
OELWEIN *      PTSUNNY   73  68  83 NW15G23   29.85F
WATERLOO       CLOUDY    73  68  84 N17       29.84F
$$

IAZ064-065-067-068-078-070000-
   EAST CENTRAL IOWA

CITY           SKY/WX    TMP DP  RH WIND       PRES   REMARKS
DAVENPORT      CLOUDY    74  70  87 S9        29.82F
IOWA CITY      PTSUNNY   82  74  76 NW13      29.83S HX  88
MT. PLEASANT * LGT RAIN  82  73  74 SW7       29.80R HX  88
MUSCATINE *    HVY RAIN  73  70  88 SE12G21   29.83R VSB 1/4
QUAD CITIES    CLOUDY    72  68  87 E9        29.81F
$$

IAZ062-063-075>077-085>089-095>099-070000-
   SOUTHEAST IOWA

CITY           SKY/WX    TMP DP  RH WIND       PRES   REMARKS
BURLINGTON     CLOUDY    83  76  79 S12       29.80F HX  91
FAIRFIELD *    RAIN      72  70  94 W8G23     29.86R
FORT MADISON * SUNNY     82  75  78 S9        29.82R HX  89
KEOKUK *       SUNNY     82  75  78 SW10      29.82R HX  89
OSKALOOSA *    CLOUDY    75  72  88 NW8       29.87R
CENTERVILLE *  LGT RAIN  72  70  94 CALM      29.89R
OTTUMWA        RAIN      73  72  96 SW5       29.85R FOG
WASHINGTON *   HVY RAIN  72  70  94 W7G20     29.86R VSB 1/4
$$

ABBREVIATIONS USED IN REMARKS
   TC - TEMPERATURES IN CELSIUS
  WCI - WIND CHILL INDEX
   HX - HEAT INDEX
  VSB - VISIBILITY
$$




USA.gov is the U.S. government's official web portal to all federal, state and local government web resources and services.